Charleston Air Force Base-International Airport
KCHS : rendu visible

Aérodrome :











RETROUVEZ-NOUS SUR...

 
LOGIN :

S'inscrire | Disclaimer

   EN    FR    IT 

 









Légende :    VFR   VFR Marginal   IFR   IFR Intensif   IFR Très Intensif
Visi : 
Plafond : 
>= 8 km
>= 3000ft
5 à 8 km
1000 à 3000 ft
1500m à 5 km
500 à 1000 ft
800 à 1500m
200 à 500 ft
< 800m
< 200 ft
Symboles :   Orages  Brouillard  Fortes neiges  Fortes précipitations  Vent > 20 kt






- Altitude de l'aérodrome : 46 ft
- Code IATA : CHS


KCHS - Charleston Air Force Base-International

DERNIER METAR :
  • 031256Z 23006KT 10SM SCT250 24/18 A3009 RMK AO2 SLP189 T02390183 $

METARs EXPIRÉS :
  • 031156Z 26006KT 10SM SCT250 23/18 A3010 RMK AO2 SLP190 T02280178 10228 20194 53007 $
  • 031056Z 27005KT 10SM FEW150 SCT200 21/18 A3008 RMK AO2 SLP187 T02060178 $

TAF KCHS
Valide du 03 à 12h jusqu'au 04 à 12h UTC


031120Z 0312/0412 24007KT P6SM SCT250
FM031800 20012G18KT P6SM FEW040 BKN250
FM040200 22006KT P6SM FEW030 OVC200
FIR KZJX / Amérique du Nord



MET'MAP, la Météo Aéronautique d'un coup d'oeil ! - Copyright ORBIFLY Décembre 2007 - Disclaimer

ORBIFLY MET'MAP TEAM :

Programmation & Développement : Alexandra Zaïnal
Sur une idée originale de : Baudouin d'Aumeries
Assistance à la programmation : Marc-Olivier Méhu
Soutien technique & logistique : Manuel Goepfert

Contact : metmap@orbifly.com




SOURCES & CREDITS :

   NOAA       Earth
Advisory